| time (UTC) | temp F | wind direction | speed MPH | gust MPH | rain 1hr in | rain 24hr in | rain mn in | humidity % | barometer mb |
| 20260506122536 | 58 | 135 | 2.0 | 6.0 | 0.00 | 0.00 | 0.00 | ||
| 20260506121516 | 58 | 45 | 2.0 | 7.0 | 0.00 | 0.00 | 0.00 | ||
| 20260506120516 | 58 | 225 | 3.0 | 8.0 | 0.00 | 0.00 | 0.00 | ||
| 20260506115516 | 58 | 158 | 3.0 | 6.0 | 0.00 | 0.00 | 0.00 | ||
| 20260506114516 | 58 | 68 | 2.0 | 5.0 | 0.00 | 0.00 | 0.00 | ||
| 20260506113536 | 59 | 135 | 1.0 | 5.0 | 0.00 | 0.00 | 0.00 | ||
| 20260506112536 | 58 | 225 | 2.0 | 9.0 | 0.00 | 0.00 | 0.00 | ||
| 20260506111516 | 58 | 135 | 2.0 | 6.0 | 0.00 | 0.00 | 0.00 | ||
| 20260506110516 | 58 | 225 | 2.0 | 5.0 | 0.00 | 0.00 | 0.00 | ||
| 20260506105516 | 59 | 135 | 2.0 | 5.0 | 0.00 | 0.00 | 0.00 | ||
| 20260506104516 | 59 | 135 | 2.0 | 7.0 | 0.00 | 0.00 | 0.00 | ||
| 20260506103536 | 58 | 23 | 1.0 | 3.0 | 0.00 | 0.00 | 0.00 | ||
| 20260506102516 | 58 | 113 | 2.0 | 5.0 | 0.00 | 0.00 | 0.00 | ||
| 20260506101516 | 59 | 135 | 3.0 | 7.0 | 0.00 | 0.00 | 0.00 | ||
| 20260506100536 | 60 | 90 | 2.0 | 7.0 | 0.00 | 0.00 | 0.00 | ||
| 20260506095516 | 60 | 225 | 3.0 | 8.0 | 0.00 | 0.00 | 0.00 | ||
| 20260506094516 | 60 | 248 | 3.0 | 9.0 | 0.00 | 0.00 | 0.00 | ||
| 20260506093516 | 61 | 180 | 3.0 | 8.0 | 0.00 | 0.00 | 0.00 | ||
| 20260506092536 | 60 | 135 | 3.0 | 8.0 | 0.00 | 0.00 | 0.00 | ||
| 20260506091516 | 59 | 135 | 4.0 | 7.0 | 0.00 | 0.00 | 0.00 | ||
| 20260506090517 | 60 | 158 | 3.0 | 8.0 | 0.00 | 0.00 | 0.00 | ||
| 20260506085516 | 60 | 135 | 3.0 | 7.0 | 0.00 | 0.00 | 0.00 | ||
| 20260506084516 | 61 | 113 | 2.0 | 5.0 | 0.00 | 0.00 | 0.00 | ||
| 20260506083518 | 61 | 158 | 3.0 | 6.0 | 0.00 | 0.00 | 0.00 | ||
| 20260506082517 | 62 | 203 | 2.0 | 7.0 | 0.00 | 0.00 | 0.00 | ||
| 20260506081516 | 62 | 135 | 1.0 | 5.0 | 0.00 | 0.00 | 0.00 | ||
| 20260506080516 | 61 | 90 | 2.0 | 4.0 | 0.00 | 0.00 | 0.00 | ||
| 20260506073516 | 59 | 135 | 2.0 | 6.0 | 0.00 | 0.00 | 0.00 | ||
| 20260506072516 | 60 | 158 | 3.0 | 8.0 | 0.00 | 0.00 | 0.00 | ||
| 20260506071516 | 60 | 113 | 2.0 | 4.0 | 0.00 | 0.00 | 0.00 | ||
| 20260506070516 | 61 | 135 | 3.0 | 6.0 | 0.00 | 0.00 | 0.00 | ||
| 20260506062516 | 61 | 68 | 1.0 | 3.0 | 0.00 | 0.00 | 0.00 | ||
| 20260506061516 | 59 | 158 | 1.0 | 3.0 | 0.00 | 0.00 | 0.00 | ||
| 20260506060516 | 58 | 0.0 | 1.0 | 0.00 | 0.00 | 0.00 | |||
| 20260506050516 | 43 | 0.0 | 2.0 | 0.00 | 0.00 | 0.00 | |||
| 20260506044536 | 41 | 0.0 | 1.0 | 0.00 | 0.00 | 0.00 | |||
| 20260506043536 | 38 | 0.0 | 0.0 | 0.00 | 0.00 | 0.00 | |||
| 20260506042536 | 38 | 0.0 | 2.0 | 0.00 | 0.00 | 0.00 | |||
| 20260506041536 | 37 | 0.0 | 2.0 | 0.00 | 0.00 | 0.00 | |||
| 20260506040516 | 37 | 0.0 | 2.0 | 0.00 | 0.00 | 0.00 | |||
| 20260506035516 | 37 | 0.0 | 2.0 | 0.00 | 0.00 | 0.00 | |||
| 20260506034516 | 38 | 0.0 | 1.0 | 0.00 | 0.00 | 0.00 | |||
| 20260506033516 | 37 | 0.0 | 2.0 | 0.00 | 0.00 | 0.00 | |||
| 20260506032516 | 38 | 0.0 | 1.0 | 0.00 | 0.00 | 0.00 | |||
| 20260506031516 | 38 | 0.0 | 1.0 | 0.00 | 0.00 | 0.00 | |||
| 20260506030516 | 38 | 0.0 | 2.0 | 0.00 | 0.00 | 0.00 | |||
| 20260506025516 | 37 | 0.0 | 1.0 | 0.00 | 0.00 | 0.00 | |||
| 20260506024516 | 38 | 0.0 | 2.0 | 0.00 | 0.00 | 0.00 | |||
| 20260506023516 | 38 | 0.0 | 0.0 | 0.00 | 0.00 | 0.00 | |||
| 20260506022516 | 39 | 0.0 | 1.0 | 0.00 | 0.00 | 0.00 | |||
| 20260506021536 | 39 | 0.0 | 0.0 | 0.00 | 0.00 | 0.00 | |||
| 20260506020516 | 39 | 0.0 | 0.0 | 0.00 | 0.00 | 0.00 | |||
| 20260506015516 | 39 | 0.0 | 2.0 | 0.00 | 0.00 | 0.00 | |||
| 20260506014516 | 39 | 0.0 | 1.0 | 0.00 | 0.00 | 0.00 | |||
| 20260506013516 | 40 | 0.0 | 0.0 | 0.00 | 0.00 | 0.00 | |||
| 20260506012516 | 40 | 0.0 | 0.0 | 0.00 | 0.00 | 0.00 | |||
| 20260506011516 | 40 | 0.0 | 0.0 | 0.00 | 0.00 | 0.00 | |||
| 20260506010516 | 41 | 0.0 | 3.0 | 0.00 | 0.00 | 0.00 | |||
| 20260506005516 | 40 | 0.0 | 0.0 | 0.00 | 0.00 | 0.00 | |||
| 20260506004536 | 41 | 0.0 | 1.0 | 0.00 | 0.00 | 0.00 | |||
| 20260506003516 | 41 | 0.0 | 2.0 | 0.00 | 0.00 | 0.00 | |||
| 20260506002516 | 41 | 0.0 | 1.0 | 0.00 | 0.00 | 0.00 | |||
| 20260506001516 | 41 | 0.0 | 0.0 | 0.00 | 0.00 | 0.00 | |||
| 20260506000516 | 40 | 0.0 | 0.0 | 0.00 | 0.00 | 0.00 | |||
| 20260505235516 | 41 | 0.0 | 2.0 | 0.00 | 0.00 | 0.00 | |||
| 20260505234516 | 41 | 0.0 | 0.0 | 0.00 | 0.00 | 0.00 | |||
| 20260505233516 | 41 | 0.0 | 0.0 | 0.00 | 0.00 | 0.00 | |||
| 20260505232516 | 42 | 0.0 | 1.0 | 0.00 | 0.00 | 0.00 | |||
| 20260505231516 | 43 | 0.0 | 1.0 | 0.00 | 0.00 | 0.00 | |||
| 20260505230516 | 44 | 0.0 | 1.0 | 0.00 | 0.00 | 0.00 | |||
| 20260505225536 | 44 | 0.0 | 0.0 | 0.00 | 0.00 | 0.00 | |||
| 20260505224517 | 44 | 0.0 | 0.0 | 0.00 | 0.00 | 0.00 | |||
| 20260505223516 | 45 | 0.0 | 0.0 | 0.00 | 0.00 | 0.00 | |||
| 20260505222536 | 46 | 0.0 | 1.0 | 0.00 | 0.00 | 0.00 | |||
| 20260505221516 | 46 | 0.0 | 1.0 | 0.00 | 0.00 | 0.00 | |||
| 20260505220516 | 47 | 0.0 | 2.0 | 0.00 | 0.00 | 0.00 | |||
| 20260505215516 | 48 | 0.0 | 0.0 | 0.00 | 0.00 | 0.00 | |||
| 20260505214536 | 49 | 0.0 | 0.0 | 0.00 | 0.00 | 0.00 | |||
| 20260505213516 | 49 | 0.0 | 1.0 | 0.00 | 0.00 | 0.00 | |||
| 20260505212516 | 49 | 0.0 | 0.0 | 0.00 | 0.00 | 0.00 | |||
| 20260505211516 | 50 | 0.0 | 1.0 | 0.00 | 0.00 | 0.00 | |||
| 20260505210536 | 49 | 0.0 | 0.0 | 0.00 | 0.00 | 0.00 | |||
| 20260505205516 | 49 | 0.0 | 1.0 | 0.00 | 0.00 | 0.00 | |||
| 20260505204516 | 50 | 158 | 1.0 | 3.0 | 0.00 | 0.00 | 0.00 | ||
| 20260505203516 | 50 | 0.0 | 0.0 | 0.00 | 0.00 | 0.00 | |||
| 20260505202536 | 50 | 0.0 | 0.0 | 0.00 | 0.00 | 0.00 | |||
| 20260505201536 | 51 | 0.0 | 0.0 | 0.00 | 0.00 | 0.00 | |||
| 20260505200516 | 52 | 0.0 | 0.0 | 0.00 | 0.00 | 0.00 | |||
| 20260505195516 | 52 | 0.0 | 1.0 | 0.00 | 0.00 | 0.00 | |||
| 20260505194516 | 52 | 0.0 | 0.0 | 0.00 | 0.00 | 0.00 | |||
| 20260505193516 | 52 | 0.0 | 0.0 | 0.00 | 0.00 | 0.00 | |||
| 20260505192516 | 52 | 0.0 | 1.0 | 0.00 | 0.00 | 0.00 | |||
| 20260505191516 | 52 | 0.0 | 0.0 | 0.00 | 0.00 | 0.00 | |||
| 20260505190536 | 53 | 0.0 | 2.0 | 0.00 | 0.00 | 0.00 | |||
| 20260505185517 | 53 | 0.0 | 0.0 | 0.00 | 0.00 | 0.00 | |||
| 20260505184516 | 53 | 0.0 | 0.0 | 0.00 | 0.00 | 0.00 | |||
| 20260505183536 | 54 | 0.0 | 1.0 | 0.00 | 0.00 | 0.00 | |||
| 20260505182516 | 54 | 0.0 | 1.0 | 0.00 | 0.00 | 0.00 | |||
| 20260505181516 | 54 | 0.0 | 1.0 | 0.00 | 0.00 | 0.00 | |||
| 20260505180516 | 54 | 0.0 | 1.0 | 0.00 | 0.00 | 0.00 | |||
| 20260505175516 | 55 | 0.0 | 1.0 | 0.00 | 0.00 | 0.00 | |||
| 20260505174516 | 56 | 0.0 | 1.0 | 0.00 | 0.00 | 0.00 | |||
| 20260505173536 | 56 | 270 | 1.0 | 4.0 | 0.00 | 0.00 | 0.00 | ||
| 20260505172516 | 57 | 0.0 | 2.0 | 0.00 | 0.00 | 0.00 | |||
| 20260505171516 | 57 | 248 | 2.0 | 3.0 | 0.00 | 0.00 | 0.00 | ||
| 20260505170516 | 57 | 68 | 2.0 | 4.0 | 0.00 | 0.00 | 0.00 | ||
| 20260505165536 | 58 | 225 | 1.0 | 4.0 | 0.00 | 0.00 | 0.00 | ||
| 20260505164516 | 59 | 0.0 | 3.0 | 0.00 | 0.00 | 0.00 | |||
| 20260505163516 | 60 | 0.0 | 1.0 | 0.00 | 0.00 | 0.00 | |||
| 20260505162516 | 60 | 0.0 | 2.0 | 0.00 | 0.00 | 0.00 | |||
| 20260505161516 | 61 | 0.0 | 1.0 | 0.00 | 0.00 | 0.00 | |||
| 20260505160516 | 61 | 45 | 1.0 | 3.0 | 0.00 | 0.00 | 0.00 | ||
| 20260505152516 | 61 | 68 | 2.0 | 4.0 | 0.00 | 0.00 | 0.00 | ||
| 20260505151516 | 61 | 45 | 2.0 | 6.0 | 0.00 | 0.00 | 0.00 | ||
| 20260505150516 | 60 | 68 | 2.0 | 6.0 | 0.00 | 0.00 | 0.00 | ||
| 20260505140516 | 61 | 68 | 2.0 | 5.0 | 0.00 | 0.00 | 0.00 | ||
| 20260505124516 | 63 | 135 | 3.0 | 9.0 | 0.00 | 0.00 | 0.00 | ||
| 20260505123516 | 64 | 68 | 3.0 | 8.0 | 0.00 | 0.00 | 0.00 |